Location: Roland
(31.1349°N, 85.4372°W)
Time: 04:34:46
(UTC+00:00)

Vanguard 3 - All Passes

Search period start: 14 April 2021 00:00
Search period end: 24 April 2021 00:00
Orbit: 508 x 3262 km, 33.3° (Epoch: 12 April)

Date Brightness Start Highest point End Pass type
(mag) Time Alt. Az. Time Alt. Az. Time Alt. Az.
14 Apr - 06:34:54 10° SSW 06:37:45 16° SSE 06:40:10 10° ESE night (unlit)
14 Apr - 08:45:12 10° WSW 08:48:57 72° SSE 08:52:48 10° ENE visible
14 Apr - 10:56:33 10° W 11:00:23 66° N 11:05:51 10° E daylight
14 Apr - 13:07:14 10° W 13:12:15 69° SSW 13:20:56 10° ESE daylight
14 Apr - 15:18:47 10° W 15:25:05 30° SSW 15:35:02 10° SSE daylight
15 Apr - 07:31:16 10° SW 07:35:24 38° SSE 07:38:50 10° E visible
15 Apr - 09:42:57 10° W 09:46:36 67° N 09:50:51 10° ENE visible
15 Apr - 11:54:00 10° WNW 11:58:11 87° N 12:04:50 10° ESE daylight
15 Apr - 14:04:52 10° W 14:10:19 41° SSW 14:19:26 10° SE daylight
15 Apr - 16:18:48 10° WSW 16:23:51 16° SSW 16:30:24 10° S daylight
16 Apr - 06:17:24 10° SSW 06:21:37 22° SSE 06:24:51 10° ESE night (unlit)
16 Apr - 08:28:57 10° WSW 08:32:56 87° SSE 08:36:40 10° ENE visible
16 Apr - 10:40:39 10° WNW 10:44:21 66° N 10:49:19 10° E visible
16 Apr - 12:51:26 10° W 12:56:02 57° SSW 13:03:39 10° ESE daylight
16 Apr - 15:03:24 10° WSW 15:08:43 23° SSW 15:16:29 10° SSE daylight
17 Apr - 05:04:01 10° S 05:07:29 14° SSE 05:10:16 10° ESE night (unlit)
17 Apr - 07:14:35 10° SW 07:19:19 51° SSE 07:22:56 10° E night (unlit)
17 Apr - 09:26:55 10° W 09:30:36 63° N 09:34:34 10° E visible
17 Apr - 11:38:07 10° WNW 11:42:05 84° SSW 11:48:01 10° ESE daylight
17 Apr - 13:49:14 10° W 13:54:03 31° SSW 14:01:36 10° SE daylight
17 Apr - 16:06:11 10° SW 16:07:28 10° SSW 16:08:50 10° SSW daylight
18 Apr - 06:00:04 10° SW 06:05:30 31° SSE 06:09:17 10° E night (unlit)
18 Apr - 08:12:39 10° W 08:16:55 81° NNW 08:20:35 10° ENE visible
18 Apr - 10:24:41 10° WNW 10:28:20 70° N 10:32:52 10° E visible
18 Apr - 12:35:39 10° W 12:39:51 45° SSW 12:46:25 10° SE daylight
18 Apr - 14:48:28 10° WSW 14:52:26 16° SSW 14:57:38 10° S daylight
19 Apr - 04:45:42 10° SSW 04:51:19 21° SSE 04:55:18 10° ESE night (unlit)
19 Apr - 06:57:52 10° WSW 07:03:14 65° SSE 07:07:03 10° E night (unlit)
19 Apr - 09:10:49 10° W 09:14:37 61° N 09:18:23 10° E visible
19 Apr - 11:22:13 10° W 11:26:01 70° SSW 11:31:18 10° ESE daylight
19 Apr - 13:33:47 10° WSW 13:37:51 23° SSW 13:43:42 10° SSE daylight
20 Apr - 03:32:02 10° S 03:36:42 15° SSE 03:40:23 10° ESE night (unlit)
20 Apr - 05:42:47 10° SW 05:49:22 42° SSE 05:53:36 10° E night (unlit)
20 Apr - 07:56:16 10° W 08:00:54 73° N 08:04:34 10° ENE visible
20 Apr - 10:08:40 10° WNW 10:12:20 77° N 10:16:32 10° E visible
20 Apr - 12:19:55 10° W 12:23:43 34° SSW 12:29:12 10° SE daylight
20 Apr - 14:35:24 10° SSW 14:36:12 10° SSW 14:37:02 10° SSW daylight
21 Apr - 04:27:40 10° SSW 04:35:07 29° SSE 04:39:56 10° E night (unlit)
21 Apr - 06:41:05 10° WSW 06:47:09 78° SSE 06:51:10 10° ENE night (unlit)
21 Apr - 08:54:36 10° W 08:58:38 62° N 09:02:18 10° E visible
21 Apr - 11:06:19 10° W 11:09:56 56° SSW 11:14:38 10° ESE daylight
21 Apr - 13:18:40 10° WSW 13:21:42 16° SSW 13:25:34 10° SSE daylight
22 Apr - 03:12:57 10° SSW 03:20:25 21° SSE 03:25:37 10° ESE visible
22 Apr - 05:25:28 10° SW 05:33:12 53° SSE 05:37:51 10° E night (unlit)
22 Apr - 07:39:48 10° W 07:44:53 69° N 07:48:37 10° ENE visible
22 Apr - 09:52:35 10° WNW 09:56:19 87° NNE 10:00:15 10° ESE visible
22 Apr - 12:04:17 10° W 12:07:37 25° SSW 12:11:58 10° SSE daylight
23 Apr - 01:59:26 10° S 02:05:13 14° SSE 02:09:51 10° ESE visible
23 Apr - 04:09:45 10° SW 04:18:52 38° SSE 04:24:21 10° E visible
23 Apr - 06:24:14 10° WSW 06:31:01 89° S 06:35:17 10° ENE night (unlit)
23 Apr - 08:38:18 10° WNW 08:42:39 65° N 08:46:16 10° E visible
23 Apr - 10:50:23 10° W 10:53:52 43° SSW 10:58:00 10° SE daylight
23 Apr - 13:05:15 10° SSW 13:05:33 10° SSW 13:05:52 10° SSW daylight
